Redmond, OR

9:52 AM PST on December 16, 2017 (GMT -0800)
Roberts Field Airport

Weather History for KRDM - October, 2011

Change the Weather History Date:

Sunday, October 16, 2011

  Actual Average Record
Temperature  
Mean Temperature 48 °F 47 °F  
Max Temperature 62 °F 64 °F 85 °F (1997)
Min Temperature 33 °F 31 °F 18 °F (1999)
Degree Days  
Heating Degree Days 17 18  
Month to date heating degree days 263 243  
Since 1 July heating degree days 533 642  
Cooling Degree Days 0 0  
Month to date cooling degree days 0 0  
Year to date cooling degree days 155 222  
Moisture  
Dew Point 44 °F    
Average Humidity 72    
Maximum Humidity 100    
Minimum Humidity 44    
Precipitation  
Precipitation 0.06 in 0.02 in 0.16 in (2006)
Month to date precipitation 0.31 0.28  
Year to date precipitation 5.68 6.42  
Sea Level Pressure  
Sea Level Pressure 30.11 in    
Wind  
Wind Speed 4 mph (NW)    
Max Wind Speed 10 mph    
Max Gust Speed 14 mph    
Visibility 6 miles    
Events Fog , Rain    
T = Trace of Precipitation, MM = Missing Value Source: NWS Daily Summary

Daily Weather History Graph

Daily Weather History Graph

Search for Another Location

Airport or City:

Trip Planner

Search our weather history database for the weather conditions in past years. The results will help you decide how hot, cold, wet, or windy it might be!

Date:

Astronomy

Oct. 16, 2011 Rise Set
Actual Time 7:20 AM PDT 6:19 PM PDT
Civil Twilight 6:51 AM PDT 6:48 PM PDT
Nautical Twilight 6:17 AM PDT 7:21 PM PDT
Astronomical Twilight 5:44 AM PDT 7:55 PM PDT
Moon 8:59 PM PDT 11:51 AM PDT
Length of Visible Light 11h 57m
Length of Day
10h 58m
Waning Gibbous, 81% of the Moon is Illuminated
Oct 16
Waning Gibbous
Oct 19
Last Quarter
Oct 26
New
Nov 2
First Quarter
Nov 10
Full

Hourly Weather History & Observations

Time (PDT) Temp. Windchill Dew Point Humidity Pressure Visibility Wind Dir Wind Speed Gust Speed Precip Events Conditions
12:56 AM 48.0 °F - 46.0 °F 93% 30.02 in 5.0 mi West 3.5 mph - 0.03 in Rain Light Rain
1:56 AM 46.0 °F 42.5 °F 45.0 °F 96% 30.01 in 8.0 mi SSE 6.9 mph - 0.01 in Rain Light Rain
2:56 AM 46.4 °F 42.9 °F 46.4 °F 100% 30.03 in 9.0 mi NW 6.9 mph - N/A   Overcast
3:56 AM 46.9 °F - 46.0 °F 97% 30.00 in 5.0 mi Calm Calm - 0.01 in Rain Light Rain
4:56 AM 46.0 °F 44.8 °F 45.0 °F 96% 30.02 in 4.0 mi NNW 3.5 mph - 0.01 in   Overcast
5:56 AM 46.9 °F - 46.0 °F 97% 30.02 in 4.0 mi Calm Calm - 0.00 in   Overcast
6:14 AM 46.4 °F - 46.4 °F 100% 30.04 in 4.0 mi Calm Calm - N/A   Overcast
6:45 AM 46.4 °F 43.5 °F 46.4 °F 100% 30.04 in 0.5 mi WNW 5.8 mph - 0.00 in   Overcast
6:56 AM 46.0 °F 42.5 °F 46.0 °F 100% 30.03 in 0.5 mi NW 6.9 mph - 0.00 in Rain Light Rain
7:03 AM 46.4 °F 44.3 °F 46.4 °F 100% 30.05 in 0.5 mi NW 4.6 mph - 0.01 in Fog , Rain Light Rain
7:38 AM 46.4 °F - 46.4 °F 100% 30.06 in 1.8 mi Calm Calm - 0.01 in   Overcast
7:56 AM 46.0 °F 43.9 °F 45.0 °F 96% 30.06 in 0.8 mi NNW 4.6 mph - 0.01 in   Overcast
8:15 AM 46.4 °F 45.2 °F 46.4 °F 100% 30.07 in 1.2 mi NW 3.5 mph - N/A   Overcast
8:31 AM 46.4 °F - 46.4 °F 100% 30.08 in 2.0 mi Calm Calm - N/A   Overcast
8:56 AM 46.9 °F - 46.0 °F 97% 30.08 in 2.5 mi WNW 3.5 mph - N/A   Overcast
9:14 AM 46.4 °F 44.3 °F 46.4 °F 100% 30.09 in 3.0 mi West 4.6 mph - N/A   Overcast
9:21 AM 46.4 °F 43.5 °F 46.4 °F 100% 30.09 in 2.0 mi WNW 5.8 mph - N/A   Overcast
9:56 AM 46.9 °F - 46.0 °F 97% 30.09 in 2.0 mi West 3.5 mph - N/A   Overcast
10:52 AM 48.2 °F - 46.4 °F 93% 30.11 in 4.0 mi Calm Calm - N/A   Overcast
10:56 AM 48.0 °F - 46.0 °F 93% 30.11 in 4.0 mi Calm Calm - N/A   Overcast
11:56 AM 50.0 °F - 46.9 °F 89% 30.12 in 5.0 mi North 4.6 mph - N/A   Overcast
12:36 PM 51.8 °F - 46.4 °F 82% 30.13 in 5.0 mi ENE 3.5 mph - N/A   Overcast
12:56 PM 53.1 °F - 48.0 °F 83% 30.12 in 7.0 mi NW 4.6 mph - N/A   Overcast
1:02 PM 53.6 °F - 46.4 °F 77% 30.13 in 9.0 mi NW 4.6 mph - N/A   Scattered Clouds
1:16 PM 53.6 °F - 46.4 °F 77% 30.12 in 10.0 mi West 3.5 mph - N/A   Mostly Cloudy
1:28 PM 55.4 °F - 46.4 °F 72% 30.12 in 10.0 mi NW 6.9 mph - N/A   Mostly Cloudy
1:45 PM 55.4 °F - 48.2 °F 77% 30.13 in 10.0 mi Calm Calm - N/A   Scattered Clouds
1:53 PM 55.4 °F - 46.4 °F 72% 30.12 in 10.0 mi North 4.6 mph - N/A   Mostly Cloudy
1:56 PM 55.9 °F - 46.9 °F 72% 30.12 in 10.0 mi NNW 3.5 mph - N/A   Mostly Cloudy
2:46 PM 59.0 °F - 46.4 °F 63% 30.12 in 10.0 mi NNW 5.8 mph - N/A   Clear
2:56 PM 60.1 °F - 46.9 °F 62% 30.11 in 10.0 mi Variable 3.5 mph - N/A   Clear
3:56 PM 60.8 °F - 44.6 °F 55% 30.13 in 10.0 mi North 5.8 mph - N/A   Clear
4:56 PM 61.0 °F - 43.0 °F 52% 30.13 in 10.0 mi NNW 6.9 mph - N/A   Clear
5:56 PM 57.2 °F - 39.2 °F 51% 30.16 in 10.0 mi NW 6.9 mph - N/A   Clear
6:56 PM 52.0 °F - 30.9 °F 45% 30.19 in 10.0 mi West 4.6 mph - N/A   Clear
7:56 PM 48.9 °F - 36.0 °F 61% 30.21 in 10.0 mi WNW 5.8 mph - N/A   Clear
8:56 PM 42.1 °F - 33.1 °F 70% 30.24 in 10.0 mi Calm Calm - N/A   Clear
9:56 PM 39.0 °F 36.8 °F 33.1 °F 79% 30.27 in 10.0 mi SSW 3.5 mph - N/A   Clear
10:56 PM 36.0 °F 32.1 °F 30.9 °F 82% 30.29 in 10.0 mi SSE 4.6 mph - N/A   Clear
11:56 PM 34.0 °F 28.8 °F 30.0 °F 85% 30.31 in 10.0 mi SSE 5.8 mph - N/A   Clear